Time,TemperatureF,DewpointF,PressureIn,WindDirection,WindDirectionDegrees,WindSpeedMPH,WindSpeedGustMPH,Humidity,HourlyPrecipIn,Conditions,Clouds,dailyrainin,SoftwareType,DateUTC
2013-08-17 00:01:00,63.9,-99.9,23.83,ESE,104,6.0,11.0,-999,0.00,,,-99.99,FreeWX 2.04,2013-08-17 06:01:00,
2013-08-17 00:11:00,63.5,-99.9,23.83,ESE,106,7.0,11.6,-999,0.00,,,-99.99,FreeWX 2.04,2013-08-17 06:11:00,
2013-08-17 00:21:00,63.0,7.7,23.83,ESE,108,6.0,11.0,11,0.00,,,-99.99,FreeWX 2.04,2013-08-17 06:21:00,
2013-08-17 00:31:00,63.1,7.9,23.83,ESE,119,7.0,13.4,11,0.00,,,-99.99,FreeWX 2.04,2013-08-17 06:31:00,
2013-08-17 00:41:00,63.7,-99.9,23.83,ESE,111,7.0,11.2,-999,0.00,,,-99.99,FreeWX 2.04,2013-08-17 06:41:00,
2013-08-17 00:51:00,63.9,-99.9,23.83,ESE,111,7.0,11.0,-999,0.00,,,-99.99,FreeWX 2.04,2013-08-17 06:51:00,
2013-08-17 01:01:00,63.5,8.1,23.83,ESE,118,7.0,11.2,11,0.00,,,-99.99,FreeWX 2.04,2013-08-17 07:01:00,
2013-08-17 01:11:00,63.1,7.9,23.83,ESE,115,6.0,11.6,11,0.00,,,-99.99,FreeWX 2.04,2013-08-17 07:11:00,
2013-08-17 01:21:00,61.7,6.6,23.83,ESE,112,6.0,11.6,11,0.00,,,-99.99,FreeWX 2.04,2013-08-17 07:21:00,
2013-08-17 01:31:00,63.1,7.9,23.83,ESE,110,6.0,10.1,11,0.00,,,-99.99,FreeWX 2.04,2013-08-17 07:31:00,
2013-08-17 01:41:00,63.0,7.7,23.83,East,101,6.0,11.0,11,0.00,,,-99.99,FreeWX 2.04,2013-08-17 07:41:00,
2013-08-17 01:51:00,63.0,7.7,23.83,ESE,106,6.0,9.6,11,0.00,,,-99.99,FreeWX 2.04,2013-08-17 07:51:00,
2013-08-17 02:01:00,62.4,7.2,23.83,ESE,104,5.0,11.2,11,0.00,,,-99.99,FreeWX 2.04,2013-08-17 08:01:00,
2013-08-17 02:11:00,61.7,6.6,23.83,ESE,104,5.0,10.1,11,0.00,,,-99.99,FreeWX 2.04,2013-08-17 08:11:00,
2013-08-17 02:21:00,61.3,6.4,23.83,East,101,5.0,9.6,11,0.00,,,-99.99,FreeWX 2.04,2013-08-17 08:21:00,
2013-08-17 02:31:00,60.8,5.9,23.83,East,97,5.0,8.7,11,0.00,,,-99.99,FreeWX 2.04,2013-08-17 08:31:00,
2013-08-17 02:41:00,61.3,6.4,23.83,East,94,4.0,9.2,11,0.00,,,-99.99,FreeWX 2.04,2013-08-17 08:41:00,
2013-08-17 02:51:00,61.2,6.3,23.83,East,96,4.0,8.7,11,0.00,,,-99.99,FreeWX 2.04,2013-08-17 08:51:00,
2013-08-17 03:01:00,60.8,5.9,23.83,East,97,5.0,10.5,11,0.00,,,-99.99,FreeWX 2.04,2013-08-17 09:01:00,
2013-08-17 03:11:00,59.5,7.0,23.83,East,89,3.0,8.3,12,0.00,,,-99.99,FreeWX 2.04,2013-08-17 09:11:00,
2013-08-17 03:21:00,59.4,6.8,23.83,East,84,3.0,6.7,12,0.00,,,-99.99,FreeWX 2.04,2013-08-17 09:21:00,
2013-08-17 03:31:00,59.9,5.4,23.83,East,92,4.0,7.8,11,0.00,,,-99.99,FreeWX 2.04,2013-08-17 09:31:00,
2013-08-17 03:41:00,59.2,6.6,23.83,East,93,4.0,7.4,12,0.00,,,-99.99,FreeWX 2.04,2013-08-17 09:41:00,
2013-08-17 03:51:00,59.0,6.4,23.83,East,91,4.0,7.8,12,0.00,,,-99.99,FreeWX 2.04,2013-08-17 09:51:00,
2013-08-17 04:01:00,59.2,6.6,23.83,East,83,3.0,6.9,12,0.00,,,-99.99,FreeWX 2.04,2013-08-17 10:01:00,
2013-08-17 04:11:00,58.8,6.3,23.83,East,84,3.0,7.4,12,0.00,,,-99.99,FreeWX 2.04,2013-08-17 10:11:00,
2013-08-17 04:21:00,59.2,6.6,23.83,East,89,3.0,7.4,12,0.00,,,-99.99,FreeWX 2.04,2013-08-17 10:21:00,
2013-08-17 04:31:00,58.5,6.1,23.83,East,84,4.0,7.8,12,0.00,,,-99.99,FreeWX 2.04,2013-08-17 10:31:00,
2013-08-17 04:41:00,57.9,5.7,23.83,East,92,4.0,7.8,12,0.00,,,-99.99,FreeWX 2.04,2013-08-17 10:41:00,
2013-08-17 04:51:00,57.9,5.7,23.83,East,90,4.0,8.7,12,0.00,,,-99.99,FreeWX 2.04,2013-08-17 10:51:00,
2013-08-17 05:01:00,59.4,6.8,23.83,East,101,5.0,10.1,12,0.00,,,-99.99,FreeWX 2.04,2013-08-17 11:01:00,
2013-08-17 05:11:00,60.6,5.9,23.83,ESE,108,6.0,10.5,11,0.00,,,-99.99,FreeWX 2.04,2013-08-17 11:11:00,
2013-08-17 05:21:00,60.1,5.4,23.83,ESE,107,6.0,9.6,11,0.00,,,-99.99,FreeWX 2.04,2013-08-17 11:21:00,
2013-08-17 05:31:00,58.6,6.3,23.83,East,101,5.0,9.2,12,0.00,,,-99.99,FreeWX 2.04,2013-08-17 11:31:00,
2013-08-17 05:41:00,58.8,6.3,23.83,East,99,4.0,9.2,12,0.00,,,-99.99,FreeWX 2.04,2013-08-17 11:41:00,
2013-08-17 05:51:00,59.2,6.6,23.83,ESE,103,5.0,11.0,12,0.00,,,-99.99,FreeWX 2.04,2013-08-17 11:51:00,
2013-08-17 06:01:00,59.2,6.6,23.83,East,97,5.0,9.2,12,0.00,,,-99.99,FreeWX 2.04,2013-08-17 12:01:00,
2013-08-17 06:11:00,59.7,7.0,23.83,East,95,5.0,10.5,12,0.00,,,-99.99,FreeWX 2.04,2013-08-17 12:11:00,
2013-08-17 06:21:00,60.4,5.7,23.83,ESE,103,6.0,9.6,11,0.00,,,-99.99,FreeWX 2.04,2013-08-17 12:21:00,
2013-08-17 06:31:00,60.4,5.7,23.83,ESE,103,6.0,12.1,11,0.00,,,-99.99,FreeWX 2.04,2013-08-17 12:31:00,
2013-08-17 06:41:00,60.3,5.5,23.83,ESE,102,6.0,11.0,11,0.00,,,-99.99,FreeWX 2.04,2013-08-17 12:41:00,
2013-08-17 06:51:00,59.7,7.0,23.83,East,99,5.0,11.2,12,0.00,,,-99.99,FreeWX 2.04,2013-08-17 12:51:00,
2013-08-17 07:01:00,59.5,7.0,23.83,East,97,5.0,10.5,12,0.00,,,-99.99,FreeWX 2.04,2013-08-17 13:01:00,
2013-08-17 07:11:00,60.3,5.5,23.83,ESE,103,5.0,9.6,11,0.00,,,-99.99,FreeWX 2.04,2013-08-17 13:11:00,
2013-08-17 07:21:00,61.0,6.1,23.83,ESE,104,6.0,9.6,11,0.00,,,-99.99,FreeWX 2.04,2013-08-17 13:21:00,
2013-08-17 07:31:00,60.3,5.5,23.83,East,99,5.0,10.5,11,0.00,,,-99.99,FreeWX 2.04,2013-08-17 13:31:00,
2013-08-17 07:41:00,59.7,7.0,23.83,ESE,102,5.0,9.6,12,0.00,,,-99.99,FreeWX 2.04,2013-08-17 13:41:00,
2013-08-17 07:51:00,61.0,6.1,23.83,ESE,104,5.0,10.5,11,0.00,,,-99.99,FreeWX 2.04,2013-08-17 13:51:00,
2013-08-17 08:01:00,61.9,6.8,23.83,East,96,4.0,8.3,11,0.00,,,-99.99,FreeWX 2.04,2013-08-17 14:01:00,
2013-08-17 08:11:00,63.3,7.9,23.83,East,93,4.0,7.8,11,0.00,,,-99.99,FreeWX 2.04,2013-08-17 14:11:00,
2013-08-17 08:21:00,64.4,-99.9,23.83,East,92,1.0,6.7,-999,0.00,,,-99.99,FreeWX 2.04,2013-08-17 14:21:00,
2013-08-17 08:31:00,66.2,-99.9,23.83,East,90,2.0,6.9,-999,0.00,,,-99.99,FreeWX 2.04,2013-08-17 14:31:00,
2013-08-17 08:42:00,67.1,-99.9,23.83,ENE,77,1.0,8.3,-999,0.00,,,-99.99,FreeWX 2.04,2013-08-17 14:42:00,
2013-08-17 08:52:00,68.9,-99.9,23.83,East,80,1.0,5.8,-999,0.00,,,-99.99,FreeWX 2.04,2013-08-17 14:52:00,
2013-08-17 09:02:00,70.2,15.3,23.83,North,-999,0.0,3.6,12,0.00,,,-99.99,FreeWX 2.04,2013-08-17 15:02:00,
2013-08-17 09:12:00,71.4,14.2,23.83,East,85,1.0,5.8,11,0.00,,,-99.99,FreeWX 2.04,2013-08-17 15:12:00,
2013-08-17 09:22:00,73.9,16.2,23.83,ESE,112,3.0,7.4,11,0.00,,,-99.99,FreeWX 2.04,2013-08-17 15:22:00,
2013-08-17 09:32:00,74.8,-99.9,23.83,North,-999,0.0,5.8,-999,0.00,,,-99.99,FreeWX 2.04,2013-08-17 15:32:00,
2013-08-17 09:42:00,74.7,-99.9,23.83,North,-999,0.0,4.9,-999,0.00,,,-99.99,FreeWX 2.04,2013-08-17 15:42:00,
2013-08-17 09:52:00,76.8,-99.9,23.83,North,-999,0.0,2.7,-999,0.00,,,-99.99,FreeWX 2.04,2013-08-17 15:52:00,
2013-08-17 10:02:00,78.3,-99.9,23.83,North,-999,0.0,0.0,-999,0.00,,,-99.99,FreeWX 2.04,2013-08-17 16:02:00,
2013-08-17 10:12:00,80.8,-99.9,23.83,North,-999,0.0,0.0,-999,0.00,,,-99.99,FreeWX 2.04,2013-08-17 16:12:00,
2013-08-17 10:22:00,80.6,-99.9,23.83,NW,325,3.0,8.3,-999,0.00,,,-99.99,FreeWX 2.04,2013-08-17 16:22:00,
2013-08-17 10:32:00,80.1,-99.9,23.83,NW,312,4.0,7.4,-999,0.00,,,-99.99,FreeWX 2.04,2013-08-17 16:32:00,
2013-08-17 10:42:00,80.8,-99.9,23.83,NW,321,2.0,6.9,-999,0.00,,,-99.99,FreeWX 2.04,2013-08-17 16:42:00,
2013-08-17 10:52:00,80.6,-99.9,23.83,WNW,301,6.0,9.6,-999,0.00,,,-99.99,FreeWX 2.04,2013-08-17 16:52:00,
2013-08-17 11:02:00,82.2,-99.9,23.83,WNW,284,4.0,11.0,-999,0.00,,,-99.99,FreeWX 2.04,2013-08-17 17:02:00,
2013-08-17 11:12:00,81.9,-99.9,23.83,WNW,282,4.0,10.5,-999,0.00,,,-99.99,FreeWX 2.04,2013-08-17 17:12:00,
2013-08-17 11:22:00,83.1,-99.9,23.86,West,263,5.0,9.6,-999,0.00,,,-99.99,FreeWX 2.04,2013-08-17 17:22:00,
2013-08-17 11:32:00,83.5,-99.9,23.86,West,270,5.0,12.5,-999,0.00,,,-99.99,FreeWX 2.04,2013-08-17 17:32:00,
2013-08-17 11:42:00,83.3,-99.9,23.86,WSW,255,4.0,12.1,-999,0.00,,,-99.99,FreeWX 2.04,2013-08-17 17:42:00,
2013-08-17 11:52:00,83.3,-99.9,23.83,West,278,6.0,12.5,-999,0.00,,,-99.99,FreeWX 2.04,2013-08-17 17:52:00,
2013-08-17 12:02:00,84.2,-99.9,23.83,WNW,282,5.0,11.2,-999,0.00,,,-99.99,FreeWX 2.04,2013-08-17 18:02:00,
2013-08-17 12:12:00,85.5,-99.9,23.86,West,272,6.0,11.6,-999,0.00,,,-99.99,FreeWX 2.04,2013-08-17 18:12:00,
2013-08-17 12:22:00,85.5,-99.9,23.83,West,261,4.0,12.1,-999,0.00,,,-99.99,FreeWX 2.04,2013-08-17 18:22:00,
2013-08-17 12:32:00,86.0,-99.9,23.83,West,279,6.0,11.2,-999,0.00,,,-99.99,FreeWX 2.04,2013-08-17 18:32:00,
2013-08-17 12:42:00,83.8,-99.9,23.83,West,277,5.0,11.6,-999,0.00,,,-99.99,FreeWX 2.04,2013-08-17 18:42:00,
2013-08-17 12:52:00,84.2,-99.9,23.83,WNW,289,6.0,12.5,-999,0.00,,,-99.99,FreeWX 2.04,2013-08-17 18:52:00,
2013-08-17 13:02:00,84.0,-99.9,23.83,West,271,5.0,14.3,-999,0.00,,,-99.99,FreeWX 2.04,2013-08-17 19:02:00,
2013-08-17 13:12:00,83.3,-99.9,23.83,West,272,6.0,15.4,-999,0.00,,,-99.99,FreeWX 2.04,2013-08-17 19:12:00,
2013-08-17 13:22:00,84.2,-99.9,23.83,West,279,5.0,12.5,-999,0.00,,,-99.99,FreeWX 2.04,2013-08-17 19:22:00,
2013-08-17 13:32:00,84.6,-99.9,23.83,WSW,242,4.0,8.7,-999,0.00,,,-99.99,FreeWX 2.04,2013-08-17 19:32:00,
2013-08-17 13:42:00,85.6,-99.9,23.83,WSW,251,3.0,7.4,-999,0.00,,,-99.99,FreeWX 2.04,2013-08-17 19:42:00,
2013-08-17 13:52:00,87.1,-99.9,23.83,WSW,242,3.0,10.5,-999,0.00,,,-99.99,FreeWX 2.04,2013-08-17 19:52:00,
2013-08-17 14:02:00,84.7,-99.9,23.83,West,263,4.0,10.1,-999,0.00,,,-99.99,FreeWX 2.04,2013-08-17 20:02:00,
2013-08-17 14:12:00,82.9,-99.9,23.83,WSW,253,5.0,15.2,-999,0.00,,,-99.99,FreeWX 2.04,2013-08-17 20:12:00,
2013-08-17 14:22:00,83.7,-99.9,23.83,West,269,6.0,13.0,-999,0.00,,,-99.99,FreeWX 2.04,2013-08-17 20:22:00,
2013-08-17 14:32:00,84.2,-99.9,23.83,WSW,239,4.0,10.5,-999,0.00,,,-99.99,FreeWX 2.04,2013-08-17 20:32:00,
2013-08-17 14:42:00,86.0,-99.9,23.83,SSW,198,1.0,5.8,-999,0.00,,,-99.99,FreeWX 2.04,2013-08-17 20:42:00,
2013-08-17 14:52:00,84.9,-99.9,23.80,South,174,1.0,6.3,-999,0.00,,,-99.99,FreeWX 2.04,2013-08-17 20:52:00,
2013-08-17 15:02:00,85.6,-99.9,23.80,North,-999,0.0,5.4,-999,0.00,,,-99.99,FreeWX 2.04,2013-08-17 21:02:00,
2013-08-17 15:12:00,88.0,-99.9,23.80,SW,227,1.0,6.3,-999,0.00,,,-99.99,FreeWX 2.04,2013-08-17 21:12:00,
2013-08-17 15:22:00,86.4,-99.9,23.80,NW,317,3.0,11.0,-999,0.00,,,-99.99,FreeWX 2.04,2013-08-17 21:22:00,
2013-08-17 15:32:00,84.9,-99.9,23.80,North,5,4.0,9.2,-999,0.00,,,-99.99,FreeWX 2.04,2013-08-17 21:32:00,
2013-08-17 15:42:00,85.8,-99.9,23.80,NNE,23,4.0,9.2,-999,0.00,,,-99.99,FreeWX 2.04,2013-08-17 21:42:00,
2013-08-17 15:52:00,87.3,-99.9,23.80,WNW,287,2.0,8.7,-999,0.00,,,-99.99,FreeWX 2.04,2013-08-17 21:52:00,
2013-08-17 16:02:00,85.5,-99.9,23.80,WNW,300,4.0,8.7,-999,0.00,,,-99.99,FreeWX 2.04,2013-08-17 22:02:00,
2013-08-17 16:12:00,83.3,-99.9,23.80,NNW,337,4.0,8.7,-999,0.00,,,-99.99,FreeWX 2.04,2013-08-17 22:12:00,
2013-08-17 16:22:00,83.5,-99.9,23.80,North,-999,0.0,4.9,-999,0.00,,,-99.99,FreeWX 2.04,2013-08-17 22:22:00,
2013-08-17 16:32:00,84.4,-99.9,23.80,WSW,256,2.0,7.4,-999,0.00,,,-99.99,FreeWX 2.04,2013-08-17 22:32:00,
2013-08-17 16:42:00,86.7,-99.9,23.77,SW,232,4.0,8.7,-999,0.00,,,-99.99,FreeWX 2.04,2013-08-17 22:42:00,
2013-08-17 16:52:00,85.5,-99.9,23.77,SW,234,2.0,8.7,-999,0.00,,,-99.99,FreeWX 2.04,2013-08-17 22:52:00,
2013-08-17 17:02:00,86.2,-99.9,23.77,WSW,253,2.0,9.6,-999,0.00,,,-99.99,FreeWX 2.04,2013-08-17 23:02:00,
2013-08-17 17:12:00,88.0,-99.9,23.77,WSW,244,4.0,10.5,-999,0.00,,,-99.99,FreeWX 2.04,2013-08-17 23:12:00,
2013-08-17 17:22:00,87.6,-99.9,23.77,West,268,6.0,11.0,-999,0.00,,,-99.99,FreeWX 2.04,2013-08-17 23:22:00,
2013-08-17 17:32:00,88.0,-99.9,23.77,WSW,257,5.0,10.1,-999,0.00,,,-99.99,FreeWX 2.04,2013-08-17 23:32:00,
2013-08-17 17:42:00,88.0,-99.9,23.77,WSW,253,3.0,9.2,-999,0.00,,,-99.99,FreeWX 2.04,2013-08-17 23:42:00,
2013-08-17 17:52:00,84.7,-99.9,23.77,WNW,282,3.0,11.0,-999,0.00,,,-99.99,FreeWX 2.04,2013-08-17 23:52:00,
2013-08-17 18:02:00,85.5,-99.9,23.77,West,270,4.0,8.3,-999,0.00,,,-99.99,FreeWX 2.04,2013-08-18 00:02:00,
2013-08-17 18:12:00,87.6,-99.9,23.77,SSW,205,1.0,6.3,-999,0.00,,,-99.99,FreeWX 2.04,2013-08-18 00:12:00,
2013-08-17 18:22:00,87.4,-99.9,23.77,North,-999,0.0,4.9,-999,0.00,,,-99.99,FreeWX 2.04,2013-08-18 00:22:00,
2013-08-17 18:32:00,84.6,-99.9,23.77,North,354,1.0,6.3,-999,0.00,,,-99.99,FreeWX 2.04,2013-08-18 00:32:00,
2013-08-17 18:42:00,84.6,-99.9,23.77,West,272,1.0,6.9,-999,0.00,,,-99.99,FreeWX 2.04,2013-08-18 00:42:00,
2013-08-17 18:52:00,83.7,-99.9,23.77,West,266,2.0,8.7,-999,0.00,,,-99.99,FreeWX 2.04,2013-08-18 00:52:00,
2013-08-17 19:02:00,83.7,-99.9,23.77,WNW,283,2.0,6.9,-999,0.00,,,-99.99,FreeWX 2.04,2013-08-18 01:02:00,
2013-08-17 19:12:00,82.8,-99.9,23.77,West,272,4.0,8.3,-999,0.00,,,-99.99,FreeWX 2.04,2013-08-18 01:12:00,
2013-08-17 19:22:00,83.3,-99.9,23.77,West,274,1.0,6.3,-999,0.00,,,-99.99,FreeWX 2.04,2013-08-18 01:22:00,
2013-08-17 19:32:00,83.5,-99.9,23.77,North,-999,0.0,5.4,-999,0.00,,,-99.99,FreeWX 2.04,2013-08-18 01:32:00,
2013-08-17 19:42:00,82.8,-99.9,23.77,North,-999,0.0,4.5,-999,0.00,,,-99.99,FreeWX 2.04,2013-08-18 01:42:00,
2013-08-17 19:52:00,81.9,-99.9,23.77,North,-999,0.0,0.0,-999,0.00,,,-99.99,FreeWX 2.04,2013-08-18 01:52:00,
2013-08-17 20:02:00,78.4,-99.9,23.77,North,-999,0.0,0.0,-999,0.00,,,-99.99,FreeWX 2.04,2013-08-18 02:02:00,
2013-08-17 20:12:00,74.3,-99.9,23.77,North,-999,0.0,0.0,-999,0.00,,,-99.99,FreeWX 2.04,2013-08-18 02:12:00,
2013-08-17 20:22:00,70.3,-99.9,23.77,SE,142,2.0,5.4,-999,0.00,,,-99.99,FreeWX 2.04,2013-08-18 02:22:00,
2013-08-17 20:32:00,70.2,-99.9,23.77,ESE,121,5.0,7.4,-999,0.00,,,-99.99,FreeWX 2.04,2013-08-18 02:32:00,
2013-08-17 20:42:00,70.2,-99.9,23.80,ESE,107,4.0,6.9,-999,0.00,,,-99.99,FreeWX 2.04,2013-08-18 02:42:00,
2013-08-17 20:52:00,69.4,-99.9,23.80,ESE,105,4.0,6.7,-999,0.00,,,-99.99,FreeWX 2.04,2013-08-18 02:52:00,
2013-08-17 21:02:00,68.2,-99.9,23.80,ESE,104,4.0,7.4,-999,0.00,,,-99.99,FreeWX 2.04,2013-08-18 03:02:00,
2013-08-17 21:12:00,67.1,-99.9,23.80,East,98,2.0,5.8,-999,0.00,,,-99.99,FreeWX 2.04,2013-08-18 03:12:00,
2013-08-17 21:22:00,66.4,-99.9,23.80,East,97,3.0,6.3,-999,0.00,,,-99.99,FreeWX 2.04,2013-08-18 03:22:00,
2013-08-17 21:32:00,65.5,-99.9,23.80,East,93,3.0,9.6,-999,0.00,,,-99.99,FreeWX 2.04,2013-08-18 03:32:00,
2013-08-17 21:42:00,66.7,-99.9,23.80,East,97,5.0,11.0,-999,0.00,,,-99.99,FreeWX 2.04,2013-08-18 03:42:00,
2013-08-17 21:52:00,67.6,-99.9,23.80,ESE,102,4.0,10.5,-999,0.00,,,-99.99,FreeWX 2.04,2013-08-18 03:52:00,
2013-08-17 22:02:00,65.1,-99.9,23.80,East,88,3.0,11.0,-999,0.00,,,-99.99,FreeWX 2.04,2013-08-18 04:02:00,
2013-08-17 22:12:00,66.0,-99.9,23.80,ESE,116,6.0,10.1,-999,0.00,,,-99.99,FreeWX 2.04,2013-08-18 04:12:00,
2013-08-17 22:22:00,65.5,-99.9,23.80,ESE,103,4.0,8.7,-999,0.00,,,-99.99,FreeWX 2.04,2013-08-18 04:22:00,
2013-08-17 22:32:00,65.1,-99.9,23.80,ESE,113,4.0,8.3,-999,0.00,,,-99.99,FreeWX 2.04,2013-08-18 04:32:00,
2013-08-17 22:43:00,65.7,-99.9,23.80,ESE,106,6.0,11.6,-999,0.00,,,-99.99,FreeWX 2.04,2013-08-18 04:43:00,
2013-08-17 22:53:00,65.3,-99.9,23.80,ESE,102,5.0,9.2,-999,0.00,,,-99.99,FreeWX 2.04,2013-08-18 04:53:00,
2013-08-17 23:03:00,65.7,-99.9,23.80,ESE,108,6.0,11.0,-999,0.00,,,-99.99,FreeWX 2.04,2013-08-18 05:03:00,
2013-08-17 23:13:00,65.7,-99.9,23.80,ESE,118,6.0,11.2,-999,0.00,,,-99.99,FreeWX 2.04,2013-08-18 05:13:00,
2013-08-17 23:23:00,65.5,-99.9,23.80,ESE,116,7.0,15.2,-999,0.00,,,-99.99,FreeWX 2.04,2013-08-18 05:23:00,
2013-08-17 23:33:00,64.9,-99.9,23.80,ESE,121,7.0,12.1,-999,0.00,,,-99.99,FreeWX 2.04,2013-08-18 05:33:00,
2013-08-17 23:43:00,64.8,-99.9,23.80,ESE,112,6.0,11.2,-999,0.00,,,-99.99,FreeWX 2.04,2013-08-18 05:43:00,
2013-08-17 23:53:00,65.1,-99.9,23.80,SE,144,6.0,11.0,-999,0.00,,,-99.99,FreeWX 2.04,2013-08-18 05:53:00,